Location: Overspoor
(51.4747°N, 5.6641°E)
Time: 13:55:55
(UTC+02:00)

RS-15 - Pass Details

Date: 01 July 2022
Orbit: 1881 x 2163 km, 64.8° (Epoch: 13 August)

Event Time Altitude Azimuth Distance (km) Brightness Sun altitude
Rises 01:41:58 0° 320° (NW) 5,699 11.3 -15.4°
Reaches altitude 10° 01:45:30 10° 317° (NW) 4,693 10.7 -15.4°
Maximum altitude 01:57:27 59° 243° (WSW) 2,388 8.3 -15.3°
Enters shadow 02:07:06 17° 170° (S) 4,018 9.1 -15.2°
